LHA302 KRNO-KBFI

Flight info

Callsign LHA302
Flight time 1h 19m
Altitude 38000
Route BLKJK DCT WNDEL J92 LMT J189 BTG
Aircraft A319/M-SDE1E2FGIJ1RWYZ/S

Departure

Time 2026-04-21 13:17
Airport Reno Tahoe International Airport (KRNO)

Arrival

Time 2026-04-21 14:36
Airport King County International Airport - Boeing Field (KBFI)
Time Latitude Longitude Altitude Speed Heading
2026-04-21 12:56 39.50439 -119.77328 4415 ft 0 kts
2026-04-21 13:11 39.50414 -119.77329 4414 ft 4 kts
2026-04-21 13:12 39.50389 -119.77338 4416 ft 4 kts 32°
2026-04-21 13:12 39.50374 -119.77359 4415 ft 2 kts 89°
2026-04-21 13:12 39.50374 -119.77367 4416 ft 0 kts 90°
2026-04-21 13:14 39.50375 -119.77264 4413 ft 19 kts 90°
2026-04-21 13:14 39.50447 -119.77150 4409 ft 18 kts 343°
2026-04-21 13:15 39.50598 -119.77154 4413 ft 25 kts
2026-04-21 13:15 39.50809 -119.77155 4409 ft 36 kts
2026-04-21 13:15 39.51034 -119.77152 4412 ft 15 kts 358°
2026-04-21 13:15 39.51101 -119.77048 4412 ft 20 kts 104°
2026-04-21 13:16 39.51095 -119.76923 4412 ft 15 kts 90°
2026-04-21 13:16 39.51096 -119.76748 4410 ft 25 kts 89°
2026-04-21 13:16 39.51053 -119.76677 4411 ft 10 kts 175°
2026-04-21 13:16 39.50947 -119.76676 4410 ft 27 kts 180°
2026-04-21 13:17 39.50501 -119.76677 4403 ft 100 kts 180°
2026-04-21 13:17 39.49595 -119.76676 4427 ft 156 kts 180°
2026-04-21 13:17 39.48497 -119.76672 5138 ft 156 kts 180°
2026-04-21 13:17 39.47411 -119.76696 5861 ft 160 kts 182°
2026-04-21 13:18 39.46225 -119.76755 6284 ft 182 kts 183°
2026-04-21 13:18 39.44881 -119.76825 6677 ft 205 kts 182°
2026-04-21 13:18 39.43389 -119.76902 7125 ft 226 kts 182°
2026-04-21 13:18 39.41727 -119.76963 7674 ft 251 kts 181°
2026-04-21 13:19 39.39952 -119.76979 8603 ft 257 kts 180°
2026-04-21 13:19 39.38159 -119.76977 9755 ft 256 kts 179°
2026-04-21 13:19 39.36375 -119.76970 10792 ft 257 kts 181°
2026-04-21 13:19 39.34587 -119.76936 11855 ft 258 kts 177°
2026-04-21 13:20 39.33417 -119.76624 12517 ft 263 kts 166°
2026-04-21 13:20 39.31283 -119.74896 13753 ft 285 kts 141°
2026-04-21 13:20 39.30137 -119.72717 14596 ft 300 kts 128°
2026-04-21 13:20 39.29127 -119.70344 15492 ft 305 kts 125°
2026-04-21 13:21 39.28493 -119.67642 16337 ft 327 kts 106°
2026-04-21 13:21 39.28566 -119.64662 17086 ft 351 kts 87°
2026-04-21 13:21 39.29495 -119.61572 17297 ft 391 kts 63°
2026-04-21 13:21 39.31094 -119.58598 17426 ft 415 kts 59°
2026-04-21 13:22 39.32806 -119.55515 17817 ft 428 kts 59°
2026-04-21 13:22 39.34564 -119.52373 18393 ft 434 kts 57°
2026-04-21 13:22 39.36586 -119.49431 18978 ft 444 kts 47°
2026-04-21 13:22 39.38880 -119.46723 19598 ft 448 kts 46°
2026-04-21 13:23 39.41188 -119.43976 20216 ft 453 kts 47°
2026-04-21 13:23 39.43640 -119.41370 20797 ft 463 kts 36°
2026-04-21 13:23 39.46570 -119.39549 21343 ft 473 kts 19°
2026-04-21 13:23 39.49813 -119.38785 21853 ft 478 kts
2026-04-21 13:24 39.53115 -119.39149 22358 ft 478 kts 344°
2026-04-21 13:24 39.56224 -119.40604 22839 ft 473 kts 327°
2026-04-21 13:24 39.58921 -119.42987 23315 ft 469 kts 313°
2026-04-21 13:24 39.61435 -119.45703 23777 ft 472 kts 313°
2026-04-21 13:25 39.63108 -119.47517 24105 ft 474 kts 313°
2026-04-21 13:25 39.65640 -119.50269 24556 ft 477 kts 313°
2026-04-21 13:25 39.68185 -119.53044 24994 ft 479 kts 313°
2026-04-21 13:25 39.70746 -119.55841 25456 ft 483 kts 312°
2026-04-21 13:26 39.73321 -119.58659 25863 ft 486 kts 312°
2026-04-21 13:26 39.75917 -119.61499 26287 ft 489 kts 312°
2026-04-21 13:26 39.78533 -119.64355 26701 ft 492 kts 313°
2026-04-21 13:26 39.81162 -119.67223 27103 ft 495 kts 313°
2026-04-21 13:27 39.83807 -119.70115 27508 ft 498 kts 313°
2026-04-21 13:27 39.86464 -119.73032 27892 ft 501 kts 313°
2026-04-21 13:27 39.89138 -119.75971 28244 ft 505 kts 313°
2026-04-21 13:27 39.91833 -119.78929 28592 ft 508 kts 313°
2026-04-21 13:28 39.94542 -119.81903 28952 ft 510 kts 313°
2026-04-21 13:28 39.97267 -119.84896 29299 ft 514 kts 313°
2026-04-21 13:28 40.00010 -119.87912 29623 ft 517 kts 313°
2026-04-21 13:28 40.02767 -119.90948 29926 ft 520 kts 313°
2026-04-21 13:29 40.05503 -119.93964 30230 ft 523 kts 313°
2026-04-21 13:29 40.08321 -119.97073 30554 ft 524 kts 313°
2026-04-21 13:29 40.11995 -120.01133 31121 ft 522 kts 313°
2026-04-21 13:29 40.13832 -120.03166 31407 ft 521 kts 312°
2026-04-21 13:30 40.16597 -120.06230 31832 ft 521 kts 312°
2026-04-21 13:30 40.19356 -120.09294 32266 ft 520 kts 312°
2026-04-21 13:30 40.22110 -120.12354 32749 ft 519 kts 312°
2026-04-21 13:30 40.24863 -120.15420 33133 ft 520 kts 312°
2026-04-21 13:31 40.27615 -120.18489 33614 ft 520 kts 312°
2026-04-21 13:31 40.30366 -120.21557 34042 ft 519 kts 312°
2026-04-21 13:31 40.33112 -120.24622 34478 ft 518 kts 312°
2026-04-21 13:31 40.35847 -120.27682 34939 ft 516 kts 312°
2026-04-21 13:32 40.38595 -120.30709 35406 ft 517 kts 315°
2026-04-21 13:32 40.41587 -120.33372 35843 ft 523 kts 323°
2026-04-21 13:32 40.44717 -120.35792 36286 ft 521 kts 323°
2026-04-21 13:32 40.47835 -120.38202 36721 ft 519 kts 323°
2026-04-21 13:33 40.50939 -120.40611 37173 ft 518 kts 323°
2026-04-21 13:33 40.54036 -120.43028 37519 ft 517 kts 323°
2026-04-21 13:33 40.57123 -120.45449 37845 ft 517 kts 323°
2026-04-21 13:33 40.60207 -120.47868 37910 ft 515 kts 323°
2026-04-21 13:34 40.66302 -120.52646 37916 ft 513 kts 323°
2026-04-21 13:34 40.72427 -120.57456 37911 ft 512 kts 323°
2026-04-21 13:35 40.78542 -120.62273 37896 ft 512 kts 323°
2026-04-21 13:35 40.84654 -120.67091 37907 ft 511 kts 323°
2026-04-21 13:36 40.90759 -120.71927 37937 ft 512 kts 323°
2026-04-21 13:36 40.96869 -120.76776 37912 ft 513 kts 323°
2026-04-21 13:37 41.02986 -120.81631 37914 ft 513 kts 323°
2026-04-21 13:37 41.09112 -120.86493 37924 ft 513 kts 323°
2026-04-21 13:38 41.15228 -120.91370 37927 ft 514 kts 323°
2026-04-21 13:38 41.21344 -120.96265 37953 ft 514 kts 323°
2026-04-21 13:39 41.27463 -121.01165 37939 ft 513 kts 323°
2026-04-21 13:39 41.33580 -121.06064 37893 ft 513 kts 323°
2026-04-21 13:40 41.39699 -121.10994 37931 ft 514 kts 323°
2026-04-21 13:40 41.45819 -121.15929 37939 ft 514 kts 323°
2026-04-21 13:41 41.51937 -121.20863 37950 ft 514 kts 323°
2026-04-21 13:41 41.58002 -121.25771 37947 ft 513 kts 323°
2026-04-21 13:42 41.64104 -121.30728 37948 ft 513 kts 323°
2026-04-21 13:42 41.70194 -121.35687 37940 ft 512 kts 323°
2026-04-21 13:43 41.76279 -121.40646 37921 ft 512 kts 323°
2026-04-21 13:43 41.82361 -121.45615 37951 ft 512 kts 323°
2026-04-21 13:44 41.88444 -121.50599 37895 ft 512 kts 323°
2026-04-21 13:44 41.94524 -121.55595 37889 ft 512 kts 323°
2026-04-21 13:45 42.00608 -121.60599 37906 ft 513 kts 323°
2026-04-21 13:45 42.06694 -121.65616 37904 ft 513 kts 323°
2026-04-21 13:46 42.12831 -121.70555 37903 ft 517 kts 328°
2026-04-21 13:46 42.19673 -121.73740 37876 ft 526 kts 347°
2026-04-21 13:47 42.26905 -121.75358 37844 ft 527 kts 348°
2026-04-21 13:47 42.34130 -121.77003 37887 ft 527 kts 348°
2026-04-21 13:48 42.41347 -121.78666 37880 ft 526 kts 348°
2026-04-21 13:48 42.48565 -121.80314 37871 ft 526 kts 348°
2026-04-21 13:49 42.55783 -121.81962 37888 ft 526 kts 348°
2026-04-21 13:49 42.62990 -121.83614 37840 ft 525 kts 348°
2026-04-21 13:50 42.70198 -121.85273 37859 ft 525 kts 348°
2026-04-21 13:50 42.77400 -121.86939 37884 ft 525 kts 348°
2026-04-21 13:51 42.84564 -121.88595 37886 ft 525 kts 348°
2026-04-21 13:51 42.91766 -121.90254 37903 ft 525 kts 348°
2026-04-21 13:52 42.98966 -121.91923 37896 ft 524 kts 348°
2026-04-21 13:52 43.06156 -121.93604 37849 ft 524 kts 348°
2026-04-21 13:53 43.13343 -121.95284 37888 ft 524 kts 348°
2026-04-21 13:53 43.20532 -121.96960 37887 ft 524 kts 348°
2026-04-21 13:54 43.27720 -121.98646 37886 ft 524 kts 348°
2026-04-21 13:54 43.34909 -122.00331 37899 ft 524 kts 349°
2026-04-21 13:55 43.42094 -122.02019 37891 ft 524 kts 349°
2026-04-21 13:55 43.49282 -122.03731 37858 ft 524 kts 348°
2026-04-21 13:56 43.56473 -122.05433 37885 ft 524 kts 349°
2026-04-21 13:56 43.63663 -122.07132 37893 ft 524 kts 349°
2026-04-21 13:57 43.70853 -122.08838 37918 ft 524 kts 349°
2026-04-21 13:57 43.78026 -122.10549 37905 ft 523 kts 349°
2026-04-21 13:58 43.85194 -122.12271 37893 ft 522 kts 349°
2026-04-21 13:58 43.92365 -122.13991 37886 ft 522 kts 349°
2026-04-21 13:59 43.99534 -122.15705 37894 ft 523 kts 349°
2026-04-21 13:59 44.06653 -122.17408 37905 ft 523 kts 349°
2026-04-21 14:00 44.13806 -122.19137 37890 ft 522 kts 349°
2026-04-21 14:00 44.20963 -122.20878 37899 ft 522 kts 349°
2026-04-21 14:01 44.28117 -122.22607 37894 ft 521 kts 349°
2026-04-21 14:01 44.35267 -122.24348 37883 ft 521 kts 348°
2026-04-21 14:02 44.42403 -122.26085 37895 ft 521 kts 348°
2026-04-21 14:03 44.53108 -122.28699 37907 ft 521 kts 349°
2026-04-21 14:03 44.60230 -122.30447 37909 ft 520 kts 349°
2026-04-21 14:04 44.67348 -122.32208 37904 ft 520 kts 348°
2026-04-21 14:04 44.74467 -122.33974 37882 ft 519 kts 349°
2026-04-21 14:05 44.81589 -122.35729 37884 ft 519 kts 348°
2026-04-21 14:05 44.88658 -122.37476 37897 ft 519 kts 349°
2026-04-21 14:06 44.95778 -122.39236 37915 ft 519 kts 349°
2026-04-21 14:06 45.02899 -122.41026 37916 ft 520 kts 348°
2026-04-21 14:07 45.10012 -122.42852 37917 ft 520 kts 348°
2026-04-21 14:07 45.17130 -122.44656 37934 ft 520 kts 349°
2026-04-21 14:08 45.24249 -122.46412 37918 ft 519 kts 348°
2026-04-21 14:08 45.31363 -122.48168 37931 ft 518 kts 348°
2026-04-21 14:09 45.38459 -122.49954 37933 ft 518 kts 348°
2026-04-21 14:09 45.45510 -122.51740 37929 ft 518 kts 348°
2026-04-21 14:10 45.52607 -122.53530 37929 ft 518 kts 348°
2026-04-21 14:10 45.59705 -122.55320 37936 ft 518 kts 348°
2026-04-21 14:11 45.66802 -122.57115 37950 ft 518 kts 348°
2026-04-21 14:11 45.73896 -122.58929 37930 ft 518 kts 348°
2026-04-21 14:12 45.81008 -122.60753 37943 ft 520 kts 348°
2026-04-21 14:12 45.88134 -122.62591 37946 ft 520 kts 348°
2026-04-21 14:13 45.95259 -122.64428 37942 ft 520 kts 348°
2026-04-21 14:13 46.02384 -122.66277 37963 ft 520 kts 349°
2026-04-21 14:14 46.09496 -122.68159 37923 ft 518 kts 349°
2026-04-21 14:14 46.16530 -122.70054 37919 ft 512 kts 349°
2026-04-21 14:15 46.23534 -122.71939 37917 ft 512 kts 349°
2026-04-21 14:15 46.30536 -122.73824 37916 ft 512 kts 348°
2026-04-21 14:16 46.36348 -122.75388 37918 ft 512 kts 349°
2026-04-21 14:16 46.44494 -122.77579 37386 ft 514 kts 349°
2026-04-21 14:16 46.48016 -122.78528 36342 ft 516 kts 348°
2026-04-21 14:17 46.51565 -122.79469 35335 ft 522 kts 349°
2026-04-21 14:17 46.55191 -122.80000 34314 ft 526 kts
2026-04-21 14:17 46.57650 -122.79673 33642 ft 526 kts 13°
2026-04-21 14:17 46.61142 -122.78187 32587 ft 523 kts 25°
2026-04-21 14:18 46.64507 -122.76299 31545 ft 526 kts 25°
2026-04-21 14:18 46.67918 -122.74362 30558 ft 526 kts 25°
2026-04-21 14:18 46.71304 -122.72432 29016 ft 522 kts 25°
2026-04-21 14:18 46.74711 -122.70496 26910 ft 528 kts 25°
2026-04-21 14:19 46.78106 -122.68575 25384 ft 518 kts 24°
2026-04-21 14:19 46.81431 -122.66696 23990 ft 505 kts 24°
2026-04-21 14:19 46.84659 -122.64868 22607 ft 490 kts 24°
2026-04-21 14:19 46.87796 -122.63089 21109 ft 478 kts 24°
2026-04-21 14:20 46.90858 -122.61343 19660 ft 468 kts 25°
2026-04-21 14:20 46.93861 -122.59619 18537 ft 455 kts 25°
2026-04-21 14:20 46.96743 -122.57968 17876 ft 437 kts 25°
2026-04-21 14:20 46.99527 -122.56376 17225 ft 422 kts 25°
2026-04-21 14:21 47.02224 -122.54831 16519 ft 410 kts 26°
2026-04-21 14:21 47.04841 -122.53335 15838 ft 398 kts 26°
2026-04-21 14:21 47.07384 -122.51886 15146 ft 387 kts 26°
2026-04-21 14:21 47.09886 -122.50450 14442 ft 385 kts 26°
2026-04-21 14:22 47.12366 -122.49018 13749 ft 380 kts 26°
2026-04-21 14:22 47.14806 -122.47614 12960 ft 373 kts 26°
2026-04-21 14:22 47.17220 -122.46219 12234 ft 379 kts 26°
2026-04-21 14:22 47.19687 -122.44788 11469 ft 381 kts 26°
2026-04-21 14:23 47.22136 -122.43376 10801 ft 375 kts 25°
2026-04-21 14:23 47.24498 -122.42024 10658 ft 353 kts 25°
2026-04-21 14:23 47.26720 -122.40753 10531 ft 333 kts 25°
2026-04-21 14:23 47.28826 -122.39542 10410 ft 317 kts 26°
2026-04-21 14:24 47.30835 -122.38380 10240 ft 304 kts 26°
2026-04-21 14:24 47.32777 -122.37250 9993 ft 297 kts 26°
2026-04-21 14:24 47.34686 -122.36134 9844 ft 294 kts 26°
2026-04-21 14:24 47.36592 -122.35017 9718 ft 294 kts 26°
2026-04-21 14:25 47.38497 -122.33904 9536 ft 295 kts 26°
2026-04-21 14:25 47.40382 -122.32803 9054 ft 295 kts 26°
2026-04-21 14:25 47.42359 -122.31867 8578 ft 298 kts 13°
2026-04-21 14:25 47.44383 -122.31723 8148 ft 295 kts 358°
2026-04-21 14:26 47.46383 -122.32372 7651 ft 295 kts 343°
2026-04-21 14:26 47.48308 -122.33357 7167 ft 291 kts 343°
2026-04-21 14:26 47.50206 -122.34319 6706 ft 286 kts 343°
2026-04-21 14:26 47.52073 -122.35261 6248 ft 281 kts 343°
2026-04-21 14:27 47.53905 -122.36182 5794 ft 275 kts 343°
2026-04-21 14:27 47.55697 -122.37081 5317 ft 270 kts 343°
2026-04-21 14:27 47.57474 -122.37971 4797 ft 268 kts 343°
2026-04-21 14:27 47.59239 -122.38856 4167 ft 266 kts 342°
2026-04-21 14:28 47.60937 -122.39710 3943 ft 249 kts 342°
2026-04-21 14:28 47.62511 -122.40504 3814 ft 230 kts 342°
2026-04-21 14:28 47.63962 -122.41234 3704 ft 211 kts 342°
2026-04-21 14:28 47.65304 -122.41911 3632 ft 197 kts 342°
2026-04-21 14:29 47.66578 -122.42554 3564 ft 190 kts 342°
2026-04-21 14:29 47.67816 -122.43179 3454 ft 187 kts 341°
2026-04-21 14:29 47.69049 -122.43784 3371 ft 187 kts 345°
2026-04-21 14:29 47.70328 -122.43699 3224 ft 187 kts 20°
2026-04-21 14:30 47.71336 -122.42533 3076 ft 186 kts 57°
2026-04-21 14:30 47.71717 -122.40743 2927 ft 183 kts 90°
2026-04-21 14:30 47.71367 -122.38978 2789 ft 178 kts 125°
2026-04-21 14:30 47.70545 -122.37891 2668 ft 146 kts 154°
2026-04-21 14:31 47.69638 -122.37881 2581 ft 128 kts 197°
2026-04-21 14:31 47.68731 -122.38012 2541 ft 133 kts 176°
2026-04-21 14:31 47.67824 -122.37998 2516 ft 132 kts 181°
2026-04-21 14:31 47.66908 -122.38002 2511 ft 131 kts 181°
2026-04-21 14:32 47.65997 -122.38006 2447 ft 131 kts 181°
2026-04-21 14:32 47.65081 -122.38011 2330 ft 131 kts 182°
2026-04-21 14:32 47.64172 -122.38015 2190 ft 131 kts 182°
2026-04-21 14:32 47.63262 -122.37985 2043 ft 132 kts 175°
2026-04-21 14:33 47.62383 -122.37694 1884 ft 124 kts 165°
2026-04-21 14:33 47.61601 -122.37256 1735 ft 117 kts 160°
2026-04-21 14:33 47.60870 -122.36755 1574 ft 114 kts 159°
2026-04-21 14:33 47.60163 -122.36223 1433 ft 114 kts 158°
2026-04-21 14:34 47.59470 -122.35675 1286 ft 112 kts 155°
2026-04-21 14:34 47.58788 -122.35095 1102 ft 114 kts 153°
2026-04-21 14:34 47.58113 -122.34498 952 ft 113 kts 155°
2026-04-21 14:34 47.57428 -122.33951 806 ft 112 kts 154°
2026-04-21 14:35 47.56737 -122.33394 653 ft 113 kts 153°
2026-04-21 14:35 47.56058 -122.32821 528 ft 112 kts 154°
2026-04-21 14:35 47.55383 -122.32256 328 ft 111 kts 153°
2026-04-21 14:35 47.54703 -122.31685 212 ft 113 kts 152°
2026-04-21 14:36 47.54025 -122.31114 55 ft 112 kts 151°
2026-04-21 14:36 47.53426 -122.30605 21 ft 79 kts 150°
2026-04-21 14:36 47.53097 -122.30327 22 ft 34 kts 150°
2026-04-21 14:36 47.53041 -122.30205 24 ft 14 kts 73°
2026-04-21 14:37 47.53094 -122.30069 27 ft 17 kts 40°
2026-04-21 14:37 47.53198 -122.30118 26 ft 19 kts 328°
2026-04-21 14:37 47.53320 -122.30230 27 ft 22 kts 328°
2026-04-21 14:37 47.53451 -122.30320 24 ft 17 kts 334°
2026-04-21 14:38 47.53571 -122.30399 26 ft 20 kts 347°
2026-04-21 14:38 47.53612 -122.30378 26 ft 0 kts 53°
2026-04-21 14:39 47.59966 -122.36069 1389 ft 113 kts 156°
2026-04-21 14:39 47.59231 -122.35481 1218 ft 112 kts 154°
2026-04-21 14:40 47.58524 -122.34856 1043 ft 113 kts 153°
2026-04-21 14:40 47.57800 -122.34253 881 ft 112 kts 156°
2026-04-21 14:40 47.57091 -122.33684 740 ft 114 kts 154°
2026-04-21 14:40 47.56413 -122.33123 595 ft 115 kts 153°
2026-04-21 14:41 47.55935 -122.32732 307 ft 120 kts 151°